Find Checkmate 10

NORAD ID: 57762 Int'l Des: 2023-133 Owner: SDA Country: US operational
LEOCIRCULARPOLAR

实时位置

正在加载3D地球...

关于 Checkmate 10

正在加载描述...

即将过境

Passes for default location (London). Set your location on the main map for personalized predictions.

高度历史

Loading altitude history...

两行轨道根数

1 57762U 23133F 26106.59459832 -.00000017 00000-0 -24904-4 0 9992
2 57762 80.9988 66.5399 0006164 164.6093 195.5251 13.85469185132504
Epoch: Apr 16, 2026 • Age: 17 hours

当前状态

高度 968.9 km
速度 7.36 km/s
星下点 -53.48°S, 98.02°E
发射日期 Sep 2, 2023
运行时间 2.6 years
类型 other

技术详情

分类 Payload
质量 300.00 kg
干质量 300.00 kg
总质量 300.00 kg
长度 1.00 m
直径 0.60 m
跨度 2.00 m
形状 Box + panels
制造商 YORKSS
平台类型 S-Class
阶段状态 In Orbit
所有者/国家 SDA/US

Most Searched